Regional Weather Roundup
Issued by NWS

Home | Current Version | Previous Version | Text Only | Print | Product List | Glossary On
Versions: 1 2 3 4 5 6 7 8 9 10 11 12 13 14 15 16 17 18 19 20 21 22 23 24 25 26 27
000
ASUS45 KSLC 241210
RWRUT

UTAH REGIONAL WEATHER ROUNDUP
NATIONAL WEATHER SERVICE SALT LAKE CITY UT
600 AM MDT SUN JUL 24 2016

UTZ001>011-023>025-241300-

NORTHERN UTAH

CITY           SKY/WX    TMP DP  RH WIND       PRES   REMARKS
BRIGHAM CITY     N/A     61  33  35 NW5       30.09S
HILL AFB       CLEAR     63  27  25 E17G25    30.10S
LOGAN          CLEAR     48  41  76 MISG      30.14R
OGDEN          CLEAR     62  31  31 SW6       30.08R
PROVO AIRPORT  CLEAR     57  36  44 E10       30.10R
SALT LAKE CITY PTCLDY    64  40  41 SE9       30.07R
VERNAL         CLEAR     62  31  31 NW7       30.14R
WENDOVER       CLEAR     70  28  21 SE3       30.10R
HEBER CITY     CLEAR     52  36  54 CALM      30.20R

$$

UTZ012>022-026-027-241300-

SOUTHERN/CENTRAL UTAH

CITY           SKY/WX    TMP DP  RH WIND       PRES   REMARKS
BLANDING       MOCLDY    66  49  54 CALM      30.25R
BRYCE CANYON   CLEAR     48  35  60 W5        30.32R
CEDAR CITY     CLEAR     66  36  32 S8        30.13S
DELTA          CLEAR     63  28  27 SW3       30.09R
MILFORD        CLEAR     63  24  22 SW8       30.11R
MOAB/CYNLANDS  CLEAR     77  39  25 SE7       30.02R
PRICE          PTCLDY    67  28  23 CALM      30.15R
ST GEORGE      SUNNY     82  41  23 NE7       29.92R
KANAB          CLEAR     63  39  42 NE6       30.13R

$$

REGIONAL REPORTS     COLORADO/ARIZONA

CITY           SKY/WX    TMP DP  RH WIND       PRES   REMARKS
CRAIG, CO      CLOUDY    50  39  66 CALM      30.24R
GRAND JUNCTION PTCLDY    74  41  30 CALM      30.10R
RIFLE          CLOUDY    68  43  40 SE13      30.18F
MONTROSE       PTCLDY    68  42  38 SE9       30.22S
CORTEZ         CLOUDY    61  43  51 NE5       30.19S
PAGE, AZ       CLEAR     80  38  22 E3        30.02R
GRAND CANYON   CLEAR     54  48  80 CALM      30.25R
KINGMAN        CLEAR     80  50  34 SE12      29.97R
FLAGSTAFF      PTCLDY    55  48  77 CALM      30.27S

$$

REGIONAL REPORTS    NEVADA/IDAHO/WYOMING

CITY           SKY/WX    TMP DP  RH WIND       PRES   REMARKS
LAS VEGAS, NV  CLEAR     92  39  15 CALM      29.78R
ELY            PTCLDY    43  20  39 S9        30.23R
ELKO           CLEAR     50  28  42 CALM      30.18R
POCATELLO, ID  CLEAR     58  26  29 S6        30.16R
BURLEY         CLEAR     51  35  54 SW3       30.11R
EVANSTON, WY   CLOUDY    51  24  34 SE7       30.29R
ROCK SPRINGS   CLOUDY    58  33  39 SE10      30.28R
KEMMERER         N/A     45  28  53 NW12      30.31R

$$




USA.gov is the U.S. government's official web portal to all federal, state and local government web resources and services.